Location: Ackley Creek Park
(42.9527°N, 92.8757°W)
Time: 22:12:32
(UTC+00:00)

Daily predictions for brighter satellites

Satellite Brightness Start Highest point End
(mag) Time Altitude Azimuth Time Altitude Azimuth Time Altitude Azimuth
Cosmos 2221 3.7 12:03:21 10° N 12:07:18 42° ENE 12:11:14 10° SSE
Orbus 7S? 4.0 12:08:50 19° NNW 12:10:10 30° NE 12:12:48 10° ESE
Meteor 2-20 Rocket 4.3 12:06:12 10° NNW 12:11:50 60° W 12:17:24 10° S
Cosmos 1484 Rocket 2.3 12:09:46 10° N 12:13:09 71° WNW 12:16:30 10° SSW
Cosmos 1758 Rocket 3.5 12:10:15 10° S 12:14:40 84° W 12:19:05 10° N
NOSS 8 (A) 4.1 12:16:23 21° NW 12:18:13 86° NE 12:21:39 10° SE
Cosmos 1437 Rocket 3.8 12:17:53 10° N 12:21:10 39° ENE 12:24:26 10° SSE
IRS-1D 4.3 12:17:08 10° N 12:21:22 28° WNW 12:25:39 10° WSW
Helios 1A Rocket 3.4 12:22:09 10° SSW 12:25:03 27° W 12:26:48 18° NW
ISS -0.5 12:23:38 10° S 12:25:39 15° SE 12:27:41 10° E
Cosmos 2360 Rocket 2.3 12:23:10 10° NNW 12:28:40 57° WSW 12:34:08 10° S
[s.n.66873] 4.5 12:27:45 10° S 12:29:05 13° SSE 12:30:27 10° ESE
[s.n.66876] 4.5 12:28:12 10° S 12:29:34 13° SSE 12:30:56 10° ESE
[s.n.66872] 4.5 12:29:43 10° S 12:31:09 14° SSE 12:32:35 10° ESE
CZ-2D R/B 3.8 12:29:06 10° NNE 12:32:11 49° E 12:35:16 10° S
[s.n.66870] 4.5 12:31:02 10° S 12:32:30 14° SSE 12:34:00 10° ESE
[s.n.66869] 4.4 12:31:48 10° S 12:33:18 14° SSE 12:34:49 10° ESE
ATLAS 3B R/B 3.9 12:25:56 10° NNW 12:33:18 41° NE 12:40:20 10° ESE
[s.n.66868] 4.4 12:32:24 10° S 12:33:55 14° SSE 12:35:27 10° ESE
Cosmos 1833 4.2 12:28:36 10° SW 12:34:10 59° WNW 12:39:48 10° NNE
[s.n.66867] 4.4 12:33:09 10° S 12:34:43 15° SSE 12:36:16 10° ESE
Cosmos 2333 Rocket 2.9 12:29:53 11° NW 12:34:45 34° WSW 12:39:51 10° SSW
Cosmos-2242 4.0 12:31:31 10° NW 12:34:57 25° W 12:38:22 10° SW
[s.n.66866] 4.4 12:33:53 10° S 12:35:27 15° SSE 12:37:02 10° ESE
Cosmos 405 Rocket 3.0 12:32:52 10° SW 12:35:48 30° WNW 12:38:44 10° N
COSMO-SKYMED 1 3.6 12:32:32 10° SSW 12:35:50 23° W 12:39:10 10° NW
[s.n.66865] 4.4 12:34:24 10° S 12:36:00 15° SSE 12:37:36 10° ESE
[s.n.66860] 4.4 12:35:03 10° S 12:36:40 15° SSE 12:38:17 10° ESE
Cosmos 1626 Rocket 4.0 12:32:55 10° SSW 12:37:04 40° WNW 12:41:13 10° N
[s.n.66864] 4.4 12:35:40 10° S 12:37:17 15° SSE 12:38:55 10° ESE
Cosmos 1707 2.9 12:34:44 10° N 12:37:50 56° E 12:40:53 10° SSE
[s.n.66863] 4.4 12:36:15 10° S 12:37:53 15° SSE 12:39:32 10° ESE
BREEZE-M DEB (TANK) 4.2 12:35:58 14° NW 12:38:10 33° NNE 12:43:50 10° E
[s.n.66861] 4.4 12:37:02 10° SSW 12:38:43 16° SSE 12:40:23 10° ESE
Okean 1 4.3 12:36:39 12° NW 12:38:53 21° W 12:41:36 10° SW
[s.n.66862] 4.4 12:37:39 10° SSW 12:39:21 16° SSE 12:41:03 10° ESE
[s.n.66859] 4.4 12:38:21 10° SSW 12:40:03 16° SSE 12:41:46 10° ESE
Cosmos 2237 Rocket 4.4 12:36:22 10° N 12:40:18 19° NE 12:44:13 10° E
[s.n.66858] 4.4 12:39:00 10° SSW 12:40:43 16° SSE 12:42:28 10° ESE
[s.n.66857] 4.4 12:39:34 10° SSW 12:41:18 16° SSE 12:43:03 10° ESE
[s.n.66856] 4.4 12:40:06 10° SSW 12:41:52 17° SSE 12:43:37 10° ESE
SJ-12 4.3 12:38:05 10° NNE 12:41:53 62° ESE 12:45:39 10° S
[s.n.66855] 4.4 12:40:46 10° SSW 12:42:32 17° SSE 12:44:19 10° ESE
[s.n.66854] 4.4 12:41:20 10° SSW 12:43:08 17° SSE 12:44:55 10° ESE
[s.n.66853] 4.4 12:42:03 10° SSW 12:43:51 17° SSE 12:45:39 10° ESE
MOS 1 Rocket 4.2 12:39:09 10° NNE 12:44:29 64° E 12:49:39 10° S
[s.n.66852] 4.3 12:42:47 10° SSW 12:44:36 17° SSE 12:46:26 10° ESE
[s.n.66851] 4.3 12:43:17 10° SSW 12:45:08 17° SSE 12:46:58 10° ESE
Cosmos 2219 Rocket 2.2 12:39:41 10° NNW 12:45:20 71° WSW 12:50:54 10° SSE
[s.n.66850] 4.3 12:43:50 10° SSW 12:45:41 18° SSE 12:47:32 10° ESE
SL-4 R/B 1.3 12:42:55 12° WNW 12:45:49 89° NNE 12:48:58 10° ESE
[s.n.66849] 4.3 12:44:31 10° SSW 12:46:24 18° SSE 12:48:16 10° ESE
[s.n.66848] 4.3 12:45:03 10° SSW 12:46:55 18° SSE 12:48:48 10° ESE
ARIANE 5 R/B 2.9 12:42:55 10° NNE 12:48:09 72° ESE 12:53:21 10° S
IGS 5A 4.0 12:45:27 10° N 12:49:06 34° WNW 12:52:43 10° SW
Cosmos 2285 Rocket 4.4 12:46:43 10° NNW 12:52:45 46° WSW 12:58:47 10° S
Cosmos 2322 Rocket 3.0 12:47:50 10° NW 12:52:48 32° WSW 12:57:44 10° SSW
Meteor 1-10 Rocket 4.4 12:50:23 10° NNW 12:56:20 83° W 13:02:16 10° S
SAR-Lupe-4 3.5 12:54:09 10° N 12:57:43 80° WNW 13:01:16 10° SSW
Meteor 1-19 Rocket 4.4 12:53:46 10° NNW 12:59:35 73° W 13:05:31 10° S
ATLAS 2AS CENTAUR R/B 2.8 12:53:12 10° SW 13:00:14 66° NW 13:07:06 10° NNE
Cosmos 2322 4.1 12:58:51 10° NNW 13:04:30 68° ENE 13:10:08 10° SSE
Cosmos 2315 Rocket 4.1 13:01:48 10° N 13:08:11 87° W 13:14:29 10° S
CZ-4C R/B 3.2 22:54:46 10° NNW 23:01:39 54° NE 23:10:06 10° SE
Cosmos 2228 4.1 23:02:49 10° SSW 23:06:52 45° WNW 23:10:58 10° N
Cosmos 1503 Rocket 4.1 23:01:57 10° S 23:07:07 63° ESE 23:12:16 10° NNE
Thor Agena Rocket 3.7 23:02:27 10° SSE 23:07:30 55° ENE 23:12:33 10° N
Cosmos 1461 2.8 23:06:10 10° SW 23:10:01 80° NW 23:13:58 10° NNE
Cosmos 1933 3.8 23:12:10 10° SSE 23:15:42 36° E 23:19:14 10° NNE
Cosmos 1743 2.1 23:13:06 10° N 23:16:22 75° E 23:19:34 10° SSE
Cosmos 1354 Rocket 4.2 23:11:50 10° S 23:16:57 53° ESE 23:22:03 10° NNE
GEOS 3 Rocket 3.7 23:14:16 10° NE 23:19:40 81° SE 23:25:02 10° SW
Cosmos 1980 Rocket 3.2 23:15:28 10° SSE 23:20:04 26° ESE 23:24:41 10° NE
Okean 1-7 Rocket 3.8 23:17:41 10° N 23:21:55 47° ENE 23:26:07 10° SSE
Cosmos 1602 Rocket 3.5 23:18:12 10° N 23:22:36 72° E 23:26:54 10° SSE
Cosmos 1777 Rocket 4.2 23:17:39 10° SSW 23:22:54 80° WNW 23:28:10 10° NNE
SJ-12 4.3 23:20:06 10° SE 23:23:33 35° ENE 23:27:00 10° N
CORIOLIS 4.1 23:20:20 10° SSE 23:25:37 71° ENE 23:30:57 10° N
YAOGAN 1 4.1 23:24:14 10° E 23:26:34 15° ENE 23:28:53 10° NNE
IRIDIUM 104 4.3 23:22:18 10° N 23:27:31 68° E 23:32:42 10° S
Meteor 1-25 Rocket 4.3 23:24:16 10° N 23:30:00 58° ENE 23:35:38 10° SSE
Cosmos 2263 Rocket 2.9 23:27:22 10° N 23:32:21 30° NE 23:37:18 10° ESE
Cosmos 2151 2.9 23:28:52 10° N 23:33:02 89° W 23:37:12 10° S
SAR-Lupe-4 3.7 23:30:01 10° SSE 23:33:26 47° ENE 23:36:52 10° N
IGS 5A 4.1 23:31:11 10° S 23:35:03 56° W 23:38:59 10° NNW
SL-16 R/B 3.2 23:29:12 10° N 23:35:16 56° WNW 23:41:16 10° SW
IRIDIUM 114 4.3 23:31:25 10° N 23:36:40 83° E 23:41:53 10° S
Cosmos 1782 4.4 23:35:01 10° SW 23:38:13 31° WNW 23:41:28 10° NNW
CENTAUR R/B 4.3 23:33:43 10° WNW 23:38:20 21° NNW 23:43:44 10° NNE
IRS-1C 4.1 23:37:18 10° SSE 23:42:35 71° ENE 23:47:54 10° N
NOSS 2-3 (C) 3.2 23:39:21 10° SSW 23:42:45 51° ESE 23:45:08 18° NE
SAR-Lupe-1 4.1 23:41:00 10° SSE 23:44:31 57° ENE 23:48:05 10° N
IRIDIUM 103 4.4 23:40:34 10° N 23:45:49 82° W 23:51:02 10° S
Cosmos 1953 Rocket 4.1 23:42:22 10° N 23:46:30 37° ENE 23:50:37 10° SE
Cosmos 2227 Rocket 2.1 23:43:52 10° NNW 23:49:31 67° ENE 23:55:07 10° SSE
BREEZE-M DEB (TANK) 1.8 23:48:19 10° W 23:49:53 36° NNW 23:50:43 24° NE
Cosmos 2084 Rocket 3.6 23:46:00 10° NW 23:50:13 75° SW 23:54:23 10° SSE
MOS 1 Rocket 3.4 23:46:53 10° SSE 23:51:43 66° ENE 23:56:51 10° N
Cosmos 990 Rocket 4.0 23:48:03 10° SSW 23:53:10 87° WNW 23:58:20 10° NNE
EXPRESS MD2 3.0 23:51:28 10° SW 23:53:49 44° SE 23:55:08 26° E
Cosmos 1825 Rocket 3.4 23:51:20 10° N 23:55:41 80° E 23:59:58 10° S
